Starlink 11413

operational
NORAD ID: 62593 Int'l Des: 2025-008 Owner: SPXS Country: US Constellation: starlink
LEOCIRCULAR

关于 Starlink 11413

正在加载描述...

实时位置

正在加载3D地球...

即将过境

高度历史

Altitude vs Time

uPlot chart will show altitude changes over time

两行轨道根数

1 62593U 25008G 26034.24401026 .00169990 00000-0 13005-2 0 9999
2 62593 42.9956 334.0755 0000260 245.9901 114.0939 15.70855483 61760
Epoch: Feb 3, 2026 • Age: 8 hours

当前状态

高度 359.1 km
速度 7.69 km/s
星下点 -15.08°S, 19.13°W
发射日期 Jan 13, 2025
运行时间 1 years
类型 internet

技术详情

分类 Payload
质量 960.00 kg
干质量 910.00 kg
总质量 960.00 kg
长度 0.30 m
直径 4.10 m
跨度 29.00 m
形状 Box + pan
制造商 SPXS
平台类型 Starlink V2MD
阶段状态 In Orbit
所有者/国家 SPXS/US

大型星座

Loading constellations...